Location: Doverdale
(52.2833°N, 2.2000°W)
Time: 01:59:27
(UTC+00:00)

Cosmos 1980 Rocket - Pass Details

Date: 09 March 2021
Orbit: 828 x 851 km, 71.0° (Epoch: 15 April)

Event Time Altitude Azimuth Distance (km) Brightness Sun altitude
Rises 19:04:58 0° 269° (W) 3,410 7.5 -10.3°
Reaches altitude 10° 19:08:11 10° 287° (WNW) 2,480 6.2 -10.8°
Maximum altitude 19:12:08 19° 331° (NNW) 1,936 4.6 -11.4°
Drops below altitude 10° 19:16:06 10° 15° (NNE) 2,491 4.6 -12.0°
Sets 19:19:21 0° 34° (NNE) 3,430 5.1 -12.5°
